Location: Sawmill Trailhead
(33.5800°N, 116.4497°W)
Time: 06:42:59
(UTC-07:00)

Amateur Radio Satellites - All Passes

Search period start: 23 August 2017 06:12
Search period end: 24 August 2017 06:12
Location: Sawmill Trailhead, 33.5800°N, 116.4497°W

Satellite Date Start Highest point End Downlink Frequencies (MHz)
Time Altitude Azimuth
AO-85 23 Aug 06:13:27 06:14:14 10° 312° (NW) 06:15:02 145.980
HO-68 23 Aug 06:25:11 06:26:36 11° 90° (E) 06:28:00 435.675
NUDT-PHONESAT 23 Aug 06:31:06 06:34:26 30° 98° (E) 06:37:45 437.300
LilacSat-2 23 Aug 06:34:10 06:37:58 53° 100° (E) 06:41:45 437.200
XW-2D 23 Aug 06:35:02 06:38:48 52° 100° (E) 06:42:32 145.860 - 145.880
XW-2B 23 Aug 06:46:06 06:49:57 72° 101° (ESE) 06:53:46 145.730 - 145.750
CUTE-I 23 Aug 06:49:55 06:55:09 57° 101° (E) 07:00:21 437.470
CUTE 1.7 + AOD 2 23 Aug 07:03:17 07:06:09 17° 94° (E) 07:08:59 437.475
XW-2C 23 Aug 07:05:22 07:09:10 59° 284° (WNW) 07:12:57 145.795 - 145.815
STRAND 1 23 Aug 07:11:50 07:16:49 57° 74° (ENE) 07:21:49 437.568
XW-2F 23 Aug 07:15:23 07:19:05 45° 285° (WNW) 07:22:44 145.980 - 146.000
PCSat 23 Aug 07:27:17 07:32:32 49° 61° (ENE) 07:37:45 145.827
SO-50 23 Aug 07:34:39 07:39:07 51° 59° (ENE) 07:43:37 436.795
Tancredo 1 23 Aug 07:34:40 07:37:32 62° 134° (SE) 07:40:24 437.200
KAITUO 1B 23 Aug 07:36:12 07:39:35 31° 287° (WNW) 07:42:56 145.475/437.950
FO-29 23 Aug 07:37:37 07:40:11 12° 61° (ENE) 07:42:41 435.910
CUBEBUG 2 23 Aug 07:41:10 07:44:41 24° 97° (E) 07:48:15 437.445
SEEDS 23 Aug 07:45:04 07:48:55 33° 98° (E) 07:52:44 437.485
O/OREOS (USA 219) 23 Aug 07:50:34 07:52:09 12° 98° (E) 07:53:46 437.305
ISS 23 Aug 07:53:59 07:56:24 19° 128° (SE) 07:58:49 437.550
nSIGHT-1 23 Aug 07:58:31 08:01:11 23° 129° (SE) 08:03:50 .
ZACube-1 23 Aug 08:03:16 08:05:15 13° 93° (E) 08:07:15 437.345
NUDT-PHONESAT 23 Aug 08:06:01 08:08:00 14° 291° (WNW) 08:09:58 437.300
HO-68 23 Aug 08:07:55 08:15:06 83° 105° (ESE) 08:22:17 435.675
AO-73 23 Aug 08:21:45 08:24:54 19° 95° (E) 08:28:06 145.935
AAUSAT CUBESAT 2 23 Aug 08:22:16 08:26:11 39° 98° (E) 08:30:04 437.432
XW-2A 23 Aug 08:23:49 08:27:14 85° 284° (WNW) 08:30:39 145.665 - 145.685
NO-84 23 Aug 08:28:59 08:32:05 77° 231° (SW) 08:35:29 435.350 FM
CUTE-I 23 Aug 08:31:41 08:34:39 15° 295° (WNW) 08:37:38 437.470
CUTE 1.7 + AOD 2 23 Aug 08:38:11 08:41:59 31° 287° (WNW) 08:45:45 437.475
TIGRISAT 23 Aug 08:49:28 08:50:22 11° 66° (ENE) 08:51:16 435.000
STRAND 1 23 Aug 08:53:55 08:56:17 13° 267° (W) 08:58:38 437.568
RS-15 23 Aug 09:02:38 09:11:29 24° 101° (E) 09:20:26 29.354- 29.394
Oscar 11 23 Aug 09:02:53 09:07:02 42° 99° (E) 09:11:10 .
UWE-3 23 Aug 09:03:57 09:08:10 57° 284° (WNW) 09:12:29 435.000/436.395/437.385
PRISM 23 Aug 09:05:26 09:07:03 12° 66° (ENE) 09:08:38 437.425
JUGNU 23 Aug 09:08:11 09:11:41 16° 168° (SSE) 09:15:11 437.505
PCSat 23 Aug 09:11:56 09:15:28 18° 255° (WSW) 09:18:58 145.827
Tancredo 1 23 Aug 09:12:01 09:12:58 11° 330° (NNW) 09:13:55 437.200
FO-29 23 Aug 09:16:41 09:24:19 78° 75° (ENE) 09:31:16 435.910
SO-50 23 Aug 09:16:55 09:19:06 13° 252° (WSW) 09:21:18 436.795
CUBEBUG 2 23 Aug 09:17:51 09:21:09 22° 289° (WNW) 09:24:30 437.445
SEEDS 23 Aug 09:21:36 09:24:16 17° 291° (WNW) 09:26:57 437.485
O/OREOS (USA 219) 23 Aug 09:26:45 09:31:03 47° 292° (WNW) 09:35:22 437.305
ISS 23 Aug 09:29:46 09:32:43 30° 322° (NW) 09:35:40 437.550
nSIGHT-1 23 Aug 09:34:40 09:37:27 25° 324° (NW) 09:40:16 .
ZACube-1 23 Aug 09:37:32 09:41:39 43° 286° (WNW) 09:45:51 437.345
UNISAT 6 23 Aug 09:48:00 09:52:16 62° 76° (ENE) 09:56:30 437.425
Max Valier Satellite 23 Aug 09:49:37 09:52:33 22° 96° (E) 09:55:28 145.860
AO-73 23 Aug 09:57:20 10:01:06 29° 288° (WNW) 10:04:54 145.935
HO-68 23 Aug 09:57:54 10:01:54 16° 301° (WNW) 10:05:56 435.675
AAUSAT CUBESAT 2 23 Aug 09:59:10 10:01:14 14° 292° (WNW) 10:03:18 437.432
TIGRISAT 23 Aug 10:22:20 10:26:34 54° 260° (W) 10:30:45 435.000
EO-88 23 Aug 10:36:51 10:40:31 77° 101° (E) 10:44:11 145.990 - 145.960
DELFI C3 23 Aug 10:37:22 10:41:16 57° 285° (WNW) 10:45:08 145.870
PRISM 23 Aug 10:37:52 10:41:51 45° 260° (W) 10:45:52 437.425
Oscar 11 23 Aug 10:40:31 10:42:45 14° 292° (WNW) 10:44:58 .
JUGNU 23 Aug 10:55:40 11:00:03 21° 178° (S) 11:04:25 437.505
FO-29 23 Aug 11:05:08 11:09:37 17° 267° (W) 11:13:56 435.910
RS-15 23 Aug 11:10:24 11:22:35 80° 299° (WNW) 11:35:02 29.354- 29.394
SRMSAT 23 Aug 11:14:13 11:16:28 12° 165° (SSE) 11:18:43 437.500
M-CUBED/EXP-1 PRIME 23 Aug 11:14:31 11:18:57 65° 71° (ENE) 11:23:34 437.505
AIST 2D 23 Aug 11:16:45 11:20:12 72° 77° (ENE) 11:23:41 435.315
NANOSAT C BR1 23 Aug 11:19:22 11:22:48 25° 71° (ENE) 11:26:15 145.865
Max Valier Satellite 23 Aug 11:23:37 11:26:12 18° 289° (WNW) 11:28:47 145.860
POLYITAN 1 23 Aug 11:26:24 11:30:12 34° 73° (ENE) 11:34:00 437.675
EO-79 23 Aug 11:41:02 11:45:08 53° 75° (ENE) 11:49:13 145.935-145.965
QB50P2 23 Aug 11:41:20 11:45:29 60° 75° (ENE) 11:49:37 145.880/145.840
LO-87 23 Aug 11:57:28 12:01:00 81° 282° (WNW) 12:04:31 145.935 - 145.965
BUGSAT 1 23 Aug 11:58:00 12:00:25 16° 69° (ENE) 12:02:50 437.445
ESTCUBE 1 23 Aug 12:05:15 12:09:47 65° 101° (ESE) 12:14:15 437.505/2401.250
DUCHIFAT 1 23 Aug 12:07:26 12:11:36 89° 70° (ENE) 12:15:47 145.980
Gurwin Techsat 1B 23 Aug 12:31:20 12:33:37 13° 63° (ENE) 12:35:54 435.225
Oscar 19 23 Aug 12:32:39 12:36:24 21° 67° (ENE) 12:40:10 437.125/150
JUGNU 23 Aug 12:44:27 12:48:25 18° 189° (S) 12:52:21 437.505
M-CUBED/EXP-1 PRIME 23 Aug 12:53:26 12:53:42 10° 265° (W) 12:53:58 437.505
NANOSAT C BR1 23 Aug 12:55:18 12:58:26 20° 264° (W) 13:01:33 145.865
SRMSAT 23 Aug 13:00:47 13:04:56 20° 174° (S) 13:09:04 437.500
POLYITAN 1 23 Aug 13:03:39 13:06:02 15° 266° (W) 13:08:25 437.675
AO-85 23 Aug 13:04:31 13:07:33 18° 53° (NE) 13:10:43 145.980
BEESAT 3 23 Aug 13:07:55 13:11:18 26° 55° (NE) 13:14:38 437.485
SPROUT 23 Aug 13:21:09 13:25:21 68° 285° (WNW) 13:29:34 437.525
RS-15 23 Aug 13:27:56 13:37:19 24° 323° (NW) 13:46:46 29.354- 29.394
DX 1 23 Aug 13:28:27 13:32:02 25° 97° (E) 13:35:37 434.975-435.025
BEESAT 2 23 Aug 13:29:13 13:31:38 15° 51° (NE) 13:34:01 435.950
BUGSAT 1 23 Aug 13:31:48 13:35:29 32° 262° (W) 13:39:09 437.445
VELOX 1 23 Aug 13:35:44 13:40:05 62° 285° (WNW) 13:44:24 145.980
ESTCUBE 1 23 Aug 13:45:44 13:45:57 10° 295° (WNW) 13:46:10 437.505/2401.250
50 SAT 23 Aug 13:49:20 13:52:41 74° 101° (ESE) 13:56:00 437.505
Tancredo 1 23 Aug 14:01:52 14:02:41 11° 30° (NNE) 14:03:31 437.200
Gurwin Techsat 1B 23 Aug 14:07:38 14:12:55 69° 258° (WSW) 14:18:13 435.225
Oscar 19 23 Aug 14:10:37 14:15:23 39° 261° (W) 14:20:13 437.125/150
YUBILEINY 23 Aug 14:27:10 14:33:22 22° 82° (E) 14:39:32 435.215
AO-7 23 Aug 14:35:13 14:42:51 41° 65° (ENE) 14:50:31 .
UKube-1 23 Aug 14:36:00 14:40:18 76° 285° (WNW) 14:44:35 .
AO-85 23 Aug 14:43:50 14:48:03 42° 246° (WSW) 14:52:34 145.980
BEESAT 3 23 Aug 14:45:47 14:48:39 19° 250° (WSW) 14:51:30 437.485
SRMSAT 23 Aug 14:49:13 14:53:27 20° 184° (S) 14:57:40 437.500
DX 1 23 Aug 15:04:41 15:08:03 22° 291° (WNW) 15:11:24 434.975-435.025
BEESAT 2 23 Aug 15:05:45 15:09:33 40° 246° (WSW) 15:13:16 435.950
ITUPSAT 1 23 Aug 15:13:42 15:17:37 25° 97° (E) 15:21:31 437.325
MOZHAYETS 4 23 Aug 15:31:31 15:35:44 34° 98° (E) 15:39:57
Tancredo 1 23 Aug 15:35:16 15:38:08 64° 225° (SW) 15:40:58 437.200
ITAMSAT 1 23 Aug 15:36:12 15:41:25 88° 77° (ENE) 15:46:37 435.822/435.867
RS-15 23 Aug 15:53:06 15:56:47 12° 360° (N) 16:00:27 29.354- 29.394
ISS 23 Aug 16:00:26 16:03:33 41° 40° (NE) 16:06:38 437.550
CUBESAT XI-V 23 Aug 16:01:15 16:03:28 13° 93° (E) 16:05:40 437.345
nSIGHT-1 23 Aug 16:04:41 16:07:50 49° 41° (NE) 16:10:59 .
BEESAT 23 Aug 16:14:16 16:19:00 67° 285° (WNW) 16:23:43 436.000
YUBILEINY 23 Aug 16:20:35 16:29:18 66° 278° (W) 16:38:01 435.215
AO-7 23 Aug 16:27:53 16:35:30 39° 260° (W) 16:43:11 .
SRMSAT 23 Aug 16:39:05 16:41:55 14° 194° (SSW) 16:44:46 437.500
ITUPSAT 1 23 Aug 16:51:19 16:55:20 27° 290° (WNW) 16:59:21 437.325
KKS-1 23 Aug 16:57:32 17:00:59 22° 96° (E) 17:04:26 437.445
MOZHAYETS 4 23 Aug 17:09:23 17:12:36 19° 291° (WNW) 17:15:49
DOVE 4 23 Aug 17:10:44 17:15:54 58° 75° (ENE) 17:20:58 437.250
LilacSat-2 23 Aug 17:13:25 17:15:34 15° 69° (ENE) 17:17:42 437.200
XW-2D 23 Aug 17:13:44 17:15:45 14° 69° (ENE) 17:17:47 145.860 - 145.880
XW-2B 23 Aug 17:24:12 17:26:49 18° 71° (ENE) 17:29:29 145.730 - 145.750
STARS 23 Aug 17:27:27 17:30:31 19° 95° (E) 17:33:35 437.465
CUBESAT XI-V 23 Aug 17:36:30 17:41:02 49° 286° (WNW) 17:45:32 437.345
ISS 23 Aug 17:38:05 17:39:43 13° 233° (SW) 17:41:21 437.550
XW-2C 23 Aug 17:42:37 17:45:59 32° 74° (ENE) 17:49:23 145.795 - 145.815
nSIGHT-1 23 Aug 17:43:00 17:43:51 11° 234° (SW) 17:44:40 .
XW-2F 23 Aug 17:51:55 17:55:26 41° 74° (ENE) 17:58:59 145.980 - 146.000
O/OREOS (USA 219) 23 Aug 18:03:01 18:05:19 14° 59° (ENE) 18:07:36 437.305
RS-15 23 Aug 18:06:52 18:16:09 24° 37° (NE) 18:25:02 29.354- 29.394
CUTE-I 23 Aug 18:07:34 18:12:51 63° 74° (ENE) 18:18:09 437.470
KAITUO 1B 23 Aug 18:11:26 18:15:04 60° 77° (ENE) 18:18:46 145.475/437.950
HO-68 23 Aug 18:32:10 18:38:45 41° 67° (ENE) 18:45:19 435.675
KKS-1 23 Aug 18:33:47 18:37:27 26° 290° (WNW) 18:41:06 437.445
SEEDS 23 Aug 18:34:02 18:36:17 14° 68° (ENE) 18:38:32 437.485
CUBEBUG 2 23 Aug 18:37:05 18:38:56 13° 68° (ENE) 18:40:46 437.445
NUDT-PHONESAT 23 Aug 18:39:21 18:42:55 53° 261° (W) 18:46:32 437.300
LilacSat-2 23 Aug 18:46:15 18:49:33 28° 263° (W) 18:52:51 437.200
XW-2D 23 Aug 18:46:20 18:49:38 29° 263° (W) 18:52:57 145.860 - 145.880
DOVE 4 23 Aug 18:51:05 18:53:47 14° 268° (W) 18:56:28 437.250
XW-2A 23 Aug 18:52:20 18:54:14 15° 70° (ENE) 18:56:09 145.665 - 145.685
XW-2B 23 Aug 18:57:53 19:00:50 22° 264° (W) 19:03:48 145.730 - 145.750
STARS 23 Aug 19:03:02 19:06:50 30° 289° (WNW) 19:10:37 437.465
AAUSAT CUBESAT 2 23 Aug 19:09:23 19:11:54 16° 69° (ENE) 19:14:28 437.432
XW-2C 23 Aug 19:18:44 19:20:14 12° 267° (W) 19:21:46 145.795 - 145.815
CUTE 1.7 + AOD 2 23 Aug 19:25:51 19:30:04 77° 260° (W) 19:34:20 437.475
STRAND 1 23 Aug 19:26:50 19:31:07 27° 96° (E) 19:35:23 437.568
O/OREOS (USA 219) 23 Aug 19:40:34 19:44:58 49° 254° (WSW) 19:49:22 437.305
CUTE-I 23 Aug 19:50:56 19:53:14 13° 268° (W) 19:55:33 437.470
Oscar 11 23 Aug 19:54:21 19:57:29 20° 70° (ENE) 20:00:37 .
UWE-3 23 Aug 19:56:41 20:00:50 66° 76° (ENE) 20:04:57 435.000/436.395/437.385
SEEDS 23 Aug 20:07:40 20:11:34 38° 262° (W) 20:15:32 437.485
CUBEBUG 2 23 Aug 20:11:06 20:15:10 42° 261° (W) 20:19:09 437.445
RS-15 23 Aug 20:18:39 20:30:41 83° 62° (ENE) 20:42:00 29.354- 29.394
HO-68 23 Aug 20:20:14 20:26:26 32° 262° (W) 20:32:42 435.675
XW-2A 23 Aug 20:24:12 20:26:45 20° 264° (W) 20:29:19 145.665 - 145.685
PCSat 23 Aug 20:26:28 20:27:13 10° 102° (ESE) 20:27:59 145.827
ZACube-1 23 Aug 20:28:55 20:33:03 84° 80° (E) 20:37:13 437.345
AAUSAT CUBESAT 2 23 Aug 20:43:18 20:47:03 33° 263° (W) 20:50:50 437.432
AO-73 23 Aug 20:48:09 20:52:14 62° 260° (W) 20:56:19 145.935
STRAND 1 23 Aug 21:05:51 21:10:11 29° 290° (WNW) 21:14:31 437.568
EO-88 23 Aug 21:11:30 21:13:55 17° 70° (ENE) 21:16:21 145.990 - 145.960
DELFI C3 23 Aug 21:18:17 21:22:02 41° 74° (ENE) 21:25:48 145.870
Oscar 11 23 Aug 21:29:43 21:33:23 28° 263° (W) 21:37:06 .
UNISAT 6 23 Aug 21:44:18 21:47:15 17° 95° (E) 21:50:13 437.425
SO-50 23 Aug 21:45:01 21:49:16 42° 114° (ESE) 21:53:31 436.795
Max Valier Satellite 23 Aug 21:57:07 22:00:44 77° 259° (WSW) 22:04:24 145.860
PCSat 23 Aug 22:04:26 22:09:51 78° 296° (WNW) 22:15:18 145.827
FO-29 23 Aug 22:16:37 22:22:01 85° 281° (W) 22:27:10 435.910
TIGRISAT 23 Aug 22:17:24 22:21:31 39° 99° (E) 22:25:40 435.000
PRISM 23 Aug 22:23:12 22:26:50 30° 98° (E) 22:30:26 437.425
LO-87 23 Aug 22:30:05 22:32:45 20° 72° (ENE) 22:35:25 145.935 - 145.965
RS-15 23 Aug 22:33:39 22:41:30 21° 260° (W) 22:49:09 29.354- 29.394
EO-88 23 Aug 22:44:32 22:47:23 22° 264° (W) 22:50:16 145.990 - 145.960
DELFI C3 23 Aug 22:55:46 22:56:56 11° 267° (W) 22:58:07 145.870
ESTCUBE 1 23 Aug 23:00:44 23:04:49 35° 72° (ENE) 23:08:57 437.505/2401.250
UNISAT 6 23 Aug 23:20:05 23:23:57 32° 288° (WNW) 23:27:54 437.425
SO-50 23 Aug 23:26:47 23:29:52 18° 309° (NW) 23:32:58 436.795
EO-79 23 Aug 23:31:41 23:33:10 12° 93° (E) 23:34:39 145.935-145.965
QB50P2 23 Aug 23:31:44 23:33:47 13° 93° (E) 23:35:50 145.880/145.840
NO-84 23 Aug 23:42:36 23:45:38 69° 131° (SE) 23:48:32 435.350 FM
PCSat 23 Aug 23:53:20 23:54:05 10° 313° (NW) 23:54:51 145.827
TIGRISAT 23 Aug 23:55:23 23:57:51 15° 292° (WNW) 00:00:19 435.000
DUCHIFAT 1 23 Aug 23:56:09 23:59:06 18° 95° (E) 00:02:03 145.980
PRISM 23 Aug 23:59:12 00:01:50 17° 292° (WNW) 00:04:26 437.425
LO-87 24 Aug 00:03:32 00:06:03 18° 264° (W) 00:08:35 145.935 - 145.965
SPROUT 24 Aug 00:10:04 00:14:11 50° 75° (ENE) 00:18:18 437.525
50 SAT 24 Aug 00:17:48 00:19:24 13° 69° (ENE) 00:21:00 437.505
AIST 2D 24 Aug 00:18:34 00:22:01 48° 284° (WNW) 00:25:27 435.315
DX 1 24 Aug 00:21:13 00:23:31 14° 67° (ENE) 00:25:50 434.975-435.025
VELOX 1 24 Aug 00:28:23 00:32:48 68° 76° (ENE) 00:37:14 145.980
M-CUBED/EXP-1 PRIME 24 Aug 00:31:44 00:35:56 89° 271° (W) 00:39:47 437.505
ESTCUBE 1 24 Aug 00:38:47 00:41:41 17° 266° (W) 00:44:37 437.505/2401.250
NANOSAT C BR1 24 Aug 00:42:04 00:46:16 83° 100° (E) 00:50:28 145.865
POLYITAN 1 24 Aug 00:50:08 00:54:20 69° 284° (WNW) 00:58:32 437.675
EO-79 24 Aug 01:05:06 01:09:06 44° 286° (WNW) 01:13:06 145.935-145.965
QB50P2 24 Aug 01:05:45 01:09:41 39° 287° (WNW) 01:13:36 145.880/145.840
BUGSAT 1 24 Aug 01:16:52 01:20:43 43° 100° (E) 01:24:35 437.445
UKube-1 24 Aug 01:26:05 01:30:16 51° 74° (ENE) 01:34:29 .
DUCHIFAT 1 24 Aug 01:31:09 01:34:43 28° 288° (WNW) 01:38:17 145.980
50 SAT 24 Aug 01:48:54 01:51:46 25° 262° (W) 01:54:39 437.505
SPROUT 24 Aug 01:49:47 01:50:18 10° 268° (W) 01:50:49 437.525
DX 1 24 Aug 01:55:08 01:59:17 42° 260° (W) 02:03:28 434.975-435.025
ITUPSAT 1 24 Aug 02:17:07 02:20:26 19° 68° (ENE) 02:23:47 437.325
Oscar 19 24 Aug 02:25:44 02:30:58 81° 284° (WNW) 02:36:09 437.125/150
Gurwin Techsat 1B 24 Aug 02:27:54 02:33:12 67° 101° (ESE) 02:38:28 435.225
MOZHAYETS 4 24 Aug 02:30:01 02:33:24 21° 69° (ENE) 02:36:48
YUBILEINY 24 Aug 02:35:52 02:44:19 52° 79° (E) 02:52:42 435.215
AO-7 24 Aug 02:43:43 02:47:54 15° 93° (E) 02:52:04 .
BUGSAT 1 24 Aug 02:54:16 02:55:39 12° 293° (WNW) 02:57:02 437.445
BEESAT 3 24 Aug 02:55:48 02:57:04 11° 107° (ESE) 02:58:19 437.485
UKube-1 24 Aug 03:05:41 03:06:31 10° 267° (W) 03:07:21 .
BEESAT 24 Aug 03:16:17 03:21:02 89° 71° (ENE) 03:25:48 436.000
AO-85 24 Aug 03:17:44 03:18:43 11° 109° (ESE) 03:19:42 145.980
KKS-1 24 Aug 03:52:53 03:55:06 14° 66° (ENE) 03:57:18 437.445
ITAMSAT 1 24 Aug 03:53:18 03:58:13 43° 100° (E) 04:03:06 435.822/435.867
ITUPSAT 1 24 Aug 03:53:37 03:57:58 36° 261° (W) 04:02:20 437.325
MOZHAYETS 4 24 Aug 04:06:23 04:10:20 29° 263° (W) 04:14:19
Gurwin Techsat 1B 24 Aug 04:10:07 04:12:31 13° 296° (WNW) 04:14:54 435.225
STARS 24 Aug 04:22:13 04:23:17 11° 65° (ENE) 04:24:21 437.465
BEESAT 3 24 Aug 04:30:19 04:34:09 46° 301° (WNW) 04:38:03 437.485
AO-7 24 Aug 04:33:06 04:41:28 89° 280° (W) 04:49:46 .
YUBILEINY 24 Aug 04:33:34 04:40:33 28° 276° (W) 04:47:32 435.215
CUBESAT XI-V 24 Aug 04:35:06 04:39:45 81° 257° (WSW) 04:44:28 437.345
BEESAT 2 24 Aug 04:52:26 04:56:24 90° 121° (ESE) 05:00:27 435.950
AO-85 24 Aug 04:54:53 04:58:40 43° 301° (WNW) 05:02:25 145.980
DOVE 4 24 Aug 05:15:20 05:18:18 18° 93° (E) 05:21:11 437.250
KKS-1 24 Aug 05:26:55 05:31:12 46° 260° (W) 05:35:30 437.445
ITAMSAT 1 24 Aug 05:33:43 05:37:18 19° 294° (WNW) 05:40:52 435.822/435.867
STARS 24 Aug 05:54:45 05:59:05 57° 259° (W) 06:03:24 437.465
